Location: Asheville, NC
(35.6000°N, 82.5500°W)
Time: 20:07:26
(UTC-04:00)

HO-68 - Pass Details

Date: 18 March 2018
Orbit: 1192 x 1205 km, 100.1° (Epoch: 24 June)

Event Time Altitude Azimuth Distance (km) Brightness Sun altitude
Rises 20:33:17 0° 191° (S) 4,075 ? -11.6°
Reaches altitude 10° 20:36:11 10° 201° (SSW) 3,116 ? -12.1°
Maximum altitude 20:42:28 33° 263° (W) 1,888 ? -13.4°
Drops below altitude 10° 20:48:48 10° 325° (NW) 3,139 ? -14.7°
Sets 20:51:46 0° 335° (NNW) 4,109 ? -15.3°
